Location: Peterborough
(44.3091°N, 78.3197°W)
Time: 06:04:30
(UTC-04:00)

Vanguard 3 - Pass Details

Date: 28 February 2024
Orbit: 510 x 3234 km, 33.3° (Epoch: 24 April)

Event Time Altitude Azimuth Distance (km) Brightness Sun altitude
Rises 23:06:04 0° 266° (W) 7,112 12.2 -49.6°
Reaches altitude 10° 23:10:54 10° 263° (W) 6,164 11.7 -50.0°
Enters shadow 23:22:25 40° 242° (WSW) 4,080 10.4 -51.0°
